Location: Beekmeers
(50.8953°N, 3.6968°E)
Time: 20:00:05
(UTC+00:00)

RESURS DK-1 - Pass Details

Date: 23 May 2024
Orbit: 541 x 547 km, 69.9° (Epoch: 16 June)

Event Time Altitude Azimuth Distance (km) Brightness Sun altitude
Rises 02:02:48 0° 329° (NNW) 2,722 6.2 -12.0°
Reaches altitude 10° 02:05:00 10° 331° (NNW) 1,826 5.3 -11.8°
Maximum altitude 02:09:05 75° 57° (ENE) 573 2.5 -11.5°
Drops below altitude 10° 02:13:08 10° 143° (SE) 1,816 4.8 -11.1°
Sets 02:15:19 0° 146° (SE) 2,706 5.7 -10.9°
